When you browse on this site, cookies collect data to enhance your experience and personalize the content and advertising you see.
Visit our Privacy Policy to learn more. By continuing to use the site, you agree to this use of cookies and data.
  • In Czech Republic
  • List of Countries
  • For 7 days
  • Water Temperature
  • Satellite Maps
  • Weather Map
  • Weather Widgets
  • user-avatar
    Login

    Hourly Weather Kalgoorlie

    Today, 19 November, Monday

    Time Temperature Precipitation Wind Pressure Humidity
    00:00 +23°C° 0 mm 5 mps 726 mmHg 39%
    01:00 +21°C° 0 mm 6 mps 726 mmHg 48%
    02:00 +20°C° 0 mm 7 mps 726 mmHg 58%
    03:00 +19°C° 0 mm 6 mps 726 mmHg 62%
    04:00 +17°C° 0 mm 6 mps 727 mmHg 66%
    05:00 +17°C° 0 mm 5 mps 727 mmHg 69%
    06:00 +17°C° 0 mm 5 mps 727 mmHg 67%
    07:00 +19°C° 0 mm 5 mps 728 mmHg 65%
    08:00 +19°C° 0 mm 4 mps 729 mmHg 63%
    09:00 +20°C° 0.1 mm 4 mps 729 mmHg 61%
    10:00 +20°C° 0.1 mm 4 mps 729 mmHg 58%
    11:00 +20°C° 0.1 mm 4 mps 729 mmHg 56%
    12:00 +21°C° 0 mm 4 mps 728 mmHg 53%
    13:00 +21°C° 0 mm 5 mps 728 mmHg 50%
    14:00 +23°C° 0 mm 5 mps 728 mmHg 46%
    15:00 +22°C° 0 mm 5 mps 728 mmHg 43%
    16:00 +22°C° 0 mm 5 mps 728 mmHg 41%
    17:00 +22°C° 0 mm 5 mps 728 mmHg 39%
    18:00 +22°C° 0 mm 5 mps 729 mmHg 38%
    19:00 +21°C° 0 mm 5 mps 729 mmHg 37%
    20:00 +21°C° 0 mm 4 mps 729 mmHg 34%
    21:00 +19°C° 0 mm 6 mps 730 mmHg 41%
    22:00 +16°C° 0 mm 8 mps 730 mmHg 48%
    23:00 +13°C° 0 mm 10 mps 730 mmHg 55%

    Tomorrow, 20 November, Tuesday

    Time Temperature Precipitation Wind Pressure Humidity
    00:00 +13°C° 0 mm 9 mps 730 mmHg 59%
    01:00 +12°C° 0 mm 8 mps 730 mmHg 62%
    02:00 +11°C° 0 mm 7 mps 730 mmHg 66%
    03:00 +10°C° 0 mm 7 mps 731 mmHg 67%
    04:00 +10°C° 0 mm 6 mps 731 mmHg 68%
    05:00 +9°C° 0 mm 6 mps 731 mmHg 69%
    06:00 +10°C° 0 mm 5 mps 732 mmHg 63%
    07:00 +12°C° 0 mm 5 mps 732 mmHg 57%
    08:00 +13°C° 0 mm 5 mps 732 mmHg 50%
    09:00 +15°C° 0 mm 4 mps 732 mmHg 44%
    10:00 +17°C° 0 mm 4 mps 731 mmHg 37%
    11:00 +19°C° 0 mm 4 mps 731 mmHg 31%
    12:00 +20°C° 0 mm 4 mps 730 mmHg 28%
    13:00 +22°C° 0 mm 5 mps 730 mmHg 25%
    14:00 +23°C° 0 mm 5 mps 729 mmHg 22%
    15:00 +23°C° 0 mm 6 mps 729 mmHg 22%
    16:00 +23°C° 0 mm 6 mps 729 mmHg 23%
    17:00 +23°C° 0 mm 7 mps 729 mmHg 24%
    18:00 +21°C° 0 mm 7 mps 729 mmHg 28%
    19:00 +20°C° 0 mm 7 mps 729 mmHg 32%
    20:00 +18°C° 0 mm 8 mps 730 mmHg 36%
    21:00 +17°C° 0 mm 7 mps 730 mmHg 39%
    22:00 +16°C° 0 mm 7 mps 730 mmHg 42%
    23:00 +15°C° 0 mm 6 mps 731 mmHg 45%

    Day after tomorrow, 21 November, Wednesday

    Time Temperature Precipitation Wind Pressure Humidity
    00:00 +14°C° 0 mm 6 mps 730 mmHg 47%
    01:00 +14°C° 0 mm 5 mps 730 mmHg 50%
    02:00 +13°C° 0 mm 5 mps 730 mmHg 53%
    03:00 +13°C° 0 mm 5 mps 730 mmHg 58%
    04:00 +12°C° 0 mm 5 mps 730 mmHg 63%
    05:00 +12°C° 0 mm 4 mps 730 mmHg 67%
    06:00 +13°C° 0 mm 5 mps 730 mmHg 64%
    07:00 +14°C° 0 mm 5 mps 730 mmHg 61%
    08:00 +15°C° 0 mm 5 mps 730 mmHg 57%
    09:00 +16°C° 0 mm 5 mps 730 mmHg 52%
    10:00 +19°C° 0 mm 4 mps 730 mmHg 47%
    11:00 +20°C° 0 mm 4 mps 730 mmHg 41%
    12:00 +21°C° 0 mm 3 mps 729 mmHg 38%
    13:00 +22°C° 0 mm 3 mps 729 mmHg 34%
    14:00 +24°C° 0 mm 3 mps 728 mmHg 30%
    15:00 +25°C° 0 mm 2 mps 728 mmHg 29%
    16:00 +25°C° 0 mm 2 mps 728 mmHg 28%
    17:00 +25°C° 0 mm 2 mps 727 mmHg 27%
    18:00 +25°C° 0 mm 3 mps 728 mmHg 29%
    19:00 +23°C° 0 mm 4 mps 728 mmHg 30%
    20:00 +22°C° 0 mm 5 mps 728 mmHg 32%
    21:00 +21°C° 0 mm 5 mps 728 mmHg 36%
    22:00 +20°C° 0 mm 6 mps 728 mmHg 40%
    23:00 +18°C° 0 mm 7 mps 729 mmHg 44%

    22 November, Thursday

    Time Temperature Precipitation Wind Pressure Humidity
    00:00 +17°C° 0 mm 7 mps 728 mmHg 45%
    01:00 +17°C° 0 mm 7 mps 727 mmHg 46%
    02:00 +16°C° 0 mm 8 mps 727 mmHg 47%
    03:00 +16°C° 0 mm 8 mps 727 mmHg 48%
    04:00 +15°C° 0 mm 8 mps 726 mmHg 49%
    05:00 +15°C° 0 mm 8 mps 726 mmHg 50%
    06:00 +16°C° 0 mm 9 mps 726 mmHg 46%
    07:00 +17°C° 0 mm 10 mps 726 mmHg 43%
    08:00 +19°C° 0 mm 10 mps 726 mmHg 40%
    09:00 +21°C° 0.1 mm 10 mps 726 mmHg 37%
    10:00 +23°C° 0.1 mm 9 mps 726 mmHg 33%
    11:00 +26°C° 0.1 mm 9 mps 726 mmHg 30%
    12:00 +27°C° 0.1 mm 8 mps 725 mmHg 28%
    13:00 +28°C° 0.1 mm 8 mps 724 mmHg 26%
    14:00 +29°C° 0.1 mm 8 mps 724 mmHg 24%
    15:00 +29°C° 0 mm 8 mps 722 mmHg 23%
    16:00 +31°C° 0 mm 8 mps 721 mmHg 22%
    17:00 +32°C° 0 mm 7 mps 720 mmHg 21%
    18:00 +29°C° 0 mm 9 mps 720 mmHg 25%
    19:00 +27°C° 0 mm 11 mps 720 mmHg 30%
    20:00 +24°C° 0 mm 14 mps 720 mmHg 34%
    21:00 +23°C° 0 mm 12 mps 720 mmHg 36%
    22:00 +22°C° 0 mm 10 mps 721 mmHg 37%
    23:00 +21°C° 0 mm 9 mps 721 mmHg 39%

    23 November, Friday

    Time Temperature Precipitation Wind Pressure Humidity
    00:00 +19°C° 0 mm 9 mps 721 mmHg 42%
    01:00 +18°C° 0 mm 9 mps 721 mmHg 45%
    02:00 +17°C° 0 mm 9 mps 721 mmHg 48%
    03:00 +16°C° 0 mm 9 mps 721 mmHg 55%
    04:00 +15°C° 0 mm 9 mps 721 mmHg 61%
    05:00 +13°C° 0 mm 9 mps 721 mmHg 68%
    06:00 +15°C° 0 mm 9 mps 722 mmHg 64%
    07:00 +16°C° 0 mm 9 mps 723 mmHg 61%
    08:00 +17°C° 0 mm 9 mps 724 mmHg 58%
    09:00 +20°C° 0 mm 8 mps 724 mmHg 51%
    10:00 +22°C° 0 mm 7 mps 724 mmHg 44%
    11:00 +24°C° 0 mm 6 mps 724 mmHg 37%
    12:00 +24°C° 0 mm 7 mps 724 mmHg 36%
    13:00 +26°C° 0 mm 7 mps 724 mmHg 36%
    14:00 +26°C° 0 mm 7 mps 724 mmHg 35%
    15:00 +24°C° 0 mm 8 mps 725 mmHg 37%
    16:00 +24°C° 0 mm 8 mps 725 mmHg 39%
    17:00 +23°C° 0 mm 8 mps 726 mmHg 40%
    18:00 +22°C° 0 mm 7 mps 727 mmHg 45%
    19:00 +21°C° 0 mm 7 mps 727 mmHg 50%
    20:00 +20°C° 0 mm 6 mps 728 mmHg 55%
    21:00 +20°C° 0 mm 6 mps 729 mmHg 58%
    22:00 +19°C° 0 mm 6 mps 729 mmHg 62%
    23:00 +17°C° 0 mm 5 mps 729 mmHg 65%

    24 November, Saturday

    Time Temperature Precipitation Wind Pressure Humidity
    00:00 +17°C° 0 mm 5 mps 729 mmHg 67%
    01:00 +17°C° 0 mm 4 mps 729 mmHg 69%
    02:00 +17°C° 0 mm 4 mps 729 mmHg 71%
    03:00 +15°C° 0 mm 4 mps 729 mmHg 73%
    04:00 +16°C° 0 mm 3 mps 729 mmHg 75%
    05:00 +14°C° 0 mm 3 mps 729 mmHg 77%
    06:00 +16°C° 0 mm 3 mps 730 mmHg 69%
    07:00 +18°C° 0 mm 3 mps 730 mmHg 61%
    08:00 +19°C° 0 mm 3 mps 731 mmHg 54%
    09:00 +21°C° 0 mm 3 mps 730 mmHg 47%
    10:00 +23°C° 0 mm 2 mps 730 mmHg 40%
    11:00 +25°C° 0 mm 2 mps 730 mmHg 33%
    12:00 +26°C° 0 mm 2 mps 729 mmHg 30%
    13:00 +27°C° 0 mm 1 mps 729 mmHg 27%
    14:00 +28°C° 0 mm 1 mps 728 mmHg 23%
    15:00 +28°C° 0 mm 1 mps 728 mmHg 23%
    16:00 +28°C° 0 mm 1 mps 728 mmHg 22%
    17:00 +29°C° 0 mm 1 mps 728 mmHg 21%
    18:00 +28°C° 0 mm 2 mps 728 mmHg 21%
    19:00 +28°C° 0 mm 2 mps 728 mmHg 22%
    20:00 +27°C° 0 mm 3 mps 728 mmHg 23%
    21:00 +27°C° 0 mm 3 mps 728 mmHg 23%
    22:00 +26°C° 0 mm 4 mps 728 mmHg 24%
    23:00 +26°C° 0 mm 5 mps 728 mmHg 24%
    Show more